[[{"header":{"parameterUnit":"m.s-1","parameterCategory":1,"la1":30.2991,"la2":30.254,"lo1":-89.0895,"lo2":-89.0444,"dy":0.0017,"dx":0.0017,"nx":28,"ny":28,"refTime":"2023-08-20T03:00:00:Z","depth":0,"parameterNumber":2,"parameterNumberName":"U-component_of_WINDS"},"data":[0,0,0,0,0,0,0,0,0,0,0,0,0,0,0,0,0,0,0,0,0,0,0,0,0,0,0,0,0,0,0,0,0,0,0,0,0,0,0,0,0,0,0,0,0,0,0,0,0,0,0,0,0,0,0,0,0,0,-2.1208,-2.1208,0,-2.1221,-2.1221,-2.1222,-2.1215,-2.1215,-2.1215,-2.1214,-2.1228,-2.1229,-2.1229,0,0,0,0,0,0,0,0,0,0,0,0,0,-2.1178,-2.1179,-2.1208,-2.1208,-2.1208,-2.1221,-2.1221,-2.1222,-2.1215,-2.1215,-2.1215,-2.1214,-2.1228,-2.1229,-2.123,0,0,0,0,0,0,0,0,0,0,0,0,0,-2.1191,-2.1179,-2.1208,-2.1207,-2.1207,-2.1221,-2.1221,-2.1222,-2.1216,-2.1215,-2.1215,-2.1214,-2.1228,-2.1229,-2.123,-2.1246,0,0,-2.1233,-2.1233,0,0,0,0,0,0,0,0,-2.119,-2.1192,-2.1207,-2.1207,-2.1207,-2.1216,-2.1216,-2.123,-2.1216,-2.1212,-2.1214,-2.1214,-2.1225,-2.1226,-2.1229,-2.1247,-2.1247,-2.1233,-2.1233,-2.1234,-2.1234,0,0,0,0,0,0,0,-2.1189,-2.1192,-2.1213,-2.1207,-2.1207,-2.1206,-2.1207,-2.1219,-2.1221,-2.1212,-2.1212,-2.1214,-2.1225,-2.1228,-2.123,-2.1247,-2.1233,-2.1234,-2.1234,-2.1235,-2.1281,-2.1281,0,0,0,0,0,0,-2.1189,-2.1191,-2.1213,-2.1213,-2.1197,-2.1207,-2.1208,-2.1214,-2.1221,-2.1222,-2.1214,-2.1213,-2.1227,-2.1229,-2.123,-2.1251,-2.1234,-2.1235,-2.1235,-2.128,-2.1281,-2.1282,0,0,0,0,0,0,-2.1188,-2.1191,-2.1212,-2.1202,-2.1205,-2.1208,-2.1214,-2.1214,-2.1218,-2.1222,-2.1223,-2.1218,-2.1227,-2.1229,-2.1243,-2.1251,-2.1235,-2.1236,-2.1279,-2.128,-2.1281,-2.1292,0,0,0,0,0,0,-2.1187,-2.119,-2.1196,-2.1202,-2.1205,-2.1224,-2.1214,-2.1215,-2.122,-2.1219,-2.1226,-2.1226,-2.1226,-2.1241,-2.1244,-2.1252,-2.1237,-2.1279,-2.128,-2.1281,-2.1291,-2.1293,-2.1295,0,0,0,0,0,-2.1186,-2.1198,-2.1196,-2.1199,-2.1213,-2.1224,-2.1226,-2.1226,-2.1221,-2.1227,-2.123,-2.1226,-2.125,-2.1242,-2.1245,-2.1254,-2.1278,-2.1279,-2.1281,-2.129,-2.1292,-2.1295,0,0,0,0,0,0,-2.1192,-2.1199,-2.1197,-2.1211,-2.1217,-2.1223,-2.1231,-2.1229,-2.1236,-2.1235,-2.1235,-2.1237,-2.1251,-2.1254,-2.1246,-2.1272,-2.1263,-2.1265,-2.1269,-2.1272,-2.1274,-2.1273,-2.1238,0,0,0,0,0,-2.1195,-2.1204,-2.1209,-2.1222,-2.1225,-2.1228,-2.1233,-2.1232,-2.1239,-2.1241,-2.1245,-2.1251,-2.126,-2.1266,-2.1275,-2.1291,-2.1293,-2.1299,-2.1301,-2.1303,-2.1305,-2.1315,-2.1318,-2.1286,-2.1286,-2.1286,0,0,-2.1202,-2.1206,-2.1212,-2.1223,-2.1228,-2.1237,-2.123,-2.124,-2.1247,-2.1242,-2.1256,-2.1259,-2.1266,-2.1282,-2.1289,-2.1285,-2.1314,-2.1305,-2.1306,-2.1307,-2.1317,-2.132,-2.1323,-2.1287,-2.1287,-2.1287,0,0,-2.1218,-2.1222,-2.1234,-2.1239,-2.1246,-2.1248,-2.1251,-2.1258,-2.126,-2.1274,-2.1271,-2.128,-2.1295,-2.1301,-2.1306,-2.1327,-2.1325,-2.133,-2.1341,-2.1351,-2.1354,-2.1356,-2.1365,-2.1368,-2.1332,-2.1332,-2.1332,0,-2.1225,-2.1239,-2.124,-2.1251,-2.1256,-2.1253,-2.1265,-2.127,-2.128,-2.1284,-2.128,-2.13,-2.1305,-2.1323,-2.1328,-2.1332,-2.1336,-2.1329,-2.1354,-2.1356,-2.1358,-2.1366,-2.1369,-2.1332,-2.1332,-2.1332,-2.1332,0,-2.1248,-2.1258,-2.1266,-2.1277,-2.1283,-2.1295,-2.1298,-2.1304,-2.1304,-2.1307,-2.1322,-2.1327,-2.1338,-2.1342,-2.1341,-2.136,-2.1358,-2.1353,-2.1345,-2.1362,-2.1369,-2.1373,-2.1333,-2.1333,-2.1333,-2.1333,0,0,-2.1267,-2.1279,-2.1282,-2.1288,-2.1297,-2.1305,-2.1317,-2.1327,-2.1334,-2.1341,-2.1352,-2.1366,-2.1362,-2.1368,-2.1368,-2.1378,-2.1396,-2.1372,-2.1372,-2.1377,-2.1418,-2.1422,-2.1425,-2.1394,-2.1395,-2.1395,-2.1418,0,-2.1285,-2.1306,-2.1308,-2.1327,-2.1337,-2.1335,-2.1346,-2.1353,-2.1356,-2.1366,-2.137,-2.138,-2.1374,-2.1378,-2.1387,-2.1391,-2.1404,-2.139,-2.1405,-2.1405,-2.1403,-2.1429,-2.1432,-2.1454,-2.1421,-2.1421,-2.1422,0,-2.1308,-2.1317,-2.1337,-2.1347,-2.1351,-2.136,-2.1371,-2.138,-2.1389,-2.1391,-2.1398,-2.1398,-2.1411,-2.1403,-2.1422,-2.1412,-2.1419,-2.1422,-2.1423,-2.1424,-2.1414,-2.1432,-2.146,-2.1464,-2.1426,-2.1426,-2.1426,0,-2.1321,-2.1338,-2.1353,-2.1358,-2.1369,-2.1376,-2.1381,-2.1389,-2.1396,-2.1406,-2.141,-2.1421,-2.1427,-2.1436,-2.1439,-2.1433,-2.1459,-2.145,-2.1462,-2.1462,-2.1467,-2.1466,-2.1497,-2.147,-2.147,-2.147,-2.147,0,-2.1341,-2.1354,-2.136,-2.1369,-2.1383,-2.1386,-2.14,-2.1405,-2.1413,-2.1423,-2.1423,-2.1433,-2.1436,-2.1447,-2.145,-2.1466,-2.1468,-2.1471,-2.1471,-2.1471,-2.1471,-2.1475,-2.1474,-2.1471,-2.1471,-2.1471,-2.1471,0,-2.1358,-2.1362,-2.1378,-2.1388,-2.1391,-2.1401,-2.141,-2.1419,-2.1423,-2.1437,-2.144,-2.1447,-2.146,-2.1464,-2.1479,-2.1481,-2.15,-2.1499,-2.1497,-2.1498,-2.1509,-2.1508,-2.1544,-2.1549,-2.1519,-2.1519,-2.1519,0,-2.137,-2.138,-2.1391,-2.1399,-2.1404,-2.1415,-2.1423,-2.1426,-2.1434,-2.1446,-2.1454,-2.1467,-2.1478,-2.1499,-2.1505,-2.1518,-2.1517,-2.1529,-2.1519,-2.1519,-2.1519,-2.1518,-2.152,-2.1531,-2.1531,-2.1531,-2.1532,0,-2.1392,-2.1394,-2.1405,-2.1417,-2.1426,-2.1436,-2.1445,-2.1451,-2.1456,-2.1465,-2.1479,-2.1487,-2.1504,-2.1517,-2.153,-2.1536,-2.1535,-2.1535,-2.1538,-2.1538,-2.1537,-2.1539,-2.1503,-2.1534,-2.1534,-2.1534,-2.1533,-2.1533,-2.1407,-2.1416,-2.1426,-2.1439,-2.1447,-2.1456,-2.1466,-2.1471,-2.1483,-2.1497,-2.1498,-2.1514,-2.1524,-2.1541,-2.1548,-2.156,-2.1557,-2.1562,-2.1563,-2.1564,-2.1566,-2.1535,-2.1563,-2.1563,-2.1563,-2.1562,-2.1562,0,-2.1429,-2.1436,-2.1448,-2.1461,-2.1472,-2.1471,-2.1481,-2.149,-2.1503,-2.1513,-2.1524,-2.1541,-2.1554,-2.1562,-2.1576,-2.1585,-2.1585,-2.1588,-2.1588,-2.159,-2.1567,-2.1563,-2.1588,-2.1588,-2.1588,-2.1588,-2.1588,-2.1588,-2.1442,-2.1458,-2.1462,-2.1483,-2.149,-2.1505,-2.1511,-2.152,-2.1528,-2.1547,-2.1558,-2.1564,-2.1573,-2.1588,-2.1601,-2.1603,-2.1609,-2.1613,-2.1614,-2.1593,-2.1591,-2.1588,-2.1585,-2.1614,-2.1614,-2.1636,-2.1636,-2.1636]},{"header":{"parameterUnit":"m.s-1","parameterCategory":1,"la1":30.2991,"la2":30.254,"lo1":-89.0895,"lo2":-89.0444,"dy":0.0017,"dx":0.0017,"nx":28,"ny":28,"refTime":"2023-08-20T03:00:00:Z","depth":0,"parameterNumber":3,"parameterNumberName":"V-component_of_WINDS"},"data":[0,0,0,0,0,0,0,0,0,0,0,0,0,0,0,0,0,0,0,0,0,0,0,0,0,0,0,0,0,0,0,0,0,0,0,0,0,0,0,0,0,0,0,0,0,0,0,0,0,0,0,0,0,0,0,0,0,0,0.63,0.6299,0,0.6187,0.6186,0.6184,0.6167,0.6168,0.6169,0.617,0.6049,0.6044,0.604,0,0,0,0,0,0,0,0,0,0,0,0,0,0.6496,0.6492,0.63,0.6299,0.6297,0.6187,0.6186,0.6184,0.6167,0.6168,0.617,0.6171,0.605,0.6045,0.604,0,0,0,0,0,0,0,0,0,0,0,0,0,0.64,0.6491,0.63,0.6276,0.6272,0.6187,0.6186,0.6184,0.6167,0.6168,0.617,0.6171,0.6052,0.6045,0.6039,0.5969,0,0,0.602,0.6017,0,0,0,0,0,0,0,0,0.6405,0.6392,0.6281,0.6277,0.6273,0.6193,0.621,0.6112,0.6166,0.6207,0.617,0.6172,0.6095,0.6085,0.606,0.5964,0.5958,0.6019,0.6016,0.6013,0.6011,0,0,0,0,0,0,0,0.6412,0.6397,0.6255,0.6279,0.6274,0.6268,0.6256,0.6191,0.6143,0.6203,0.6202,0.6189,0.6093,0.6066,0.6057,0.5957,0.602,0.6014,0.601,0.6008,0.5796,0.5794,0,0,0,0,0,0,0.6424,0.6403,0.6259,0.6252,0.6345,0.6264,0.625,0.6217,0.6144,0.6134,0.6188,0.6189,0.6076,0.6065,0.6053,0.5965,0.6013,0.6007,0.6003,0.5798,0.5796,0.5794,0,0,0,0,0,0,0.6428,0.6411,0.6263,0.6327,0.6308,0.6259,0.6221,0.6214,0.6187,0.6132,0.6123,0.617,0.6077,0.6062,0.5991,0.5961,0.6004,0.5998,0.58,0.5797,0.5795,0.5791,0,0,0,0,0,0,0.6434,0.6413,0.6387,0.6326,0.6304,0.6204,0.622,0.6211,0.6177,0.6177,0.6113,0.6104,0.6077,0.6,0.5984,0.5953,0.5994,0.5802,0.5799,0.5796,0.5793,0.5788,0.5784,0,0,0,0,0,0.6441,0.6389,0.6385,0.6368,0.6271,0.6203,0.619,0.6162,0.6175,0.6147,0.6112,0.6106,0.5968,0.5993,0.5975,0.5942,0.5804,0.58,0.5796,0.5795,0.5789,0.5784,0,0,0,0,0,0,0.6444,0.638,0.6376,0.6304,0.6259,0.62,0.6164,0.6157,0.6106,0.6107,0.6074,0.6059,0.5989,0.5958,0.5988,0.587,0.5887,0.5879,0.5892,0.5886,0.5881,0.5889,0.5988,0,0,0,0,0,0.6438,0.6389,0.6335,0.6276,0.6254,0.6213,0.6182,0.6165,0.6117,0.6097,0.6057,0.6008,0.5954,0.5918,0.5865,0.5789,0.5774,0.5757,0.5753,0.5749,0.5742,0.5699,0.569,0.578,0.578,0.578,0,0,0.6421,0.638,0.6351,0.6276,0.6239,0.6188,0.6197,0.6143,0.6104,0.6088,0.6018,0.5987,0.5931,0.5857,0.5822,0.5829,0.5714,0.5744,0.5742,0.5736,0.5693,0.5685,0.5677,0.5777,0.5778,0.5778,0,0,0.6365,0.633,0.6277,0.6241,0.6186,0.616,0.6147,0.6089,0.6068,0.5999,0.5986,0.5938,0.5846,0.5806,0.5774,0.5704,0.5695,0.5688,0.5662,0.562,0.5613,0.5607,0.558,0.5572,0.5681,0.5681,0.5681,0,0.6351,0.6275,0.625,0.6196,0.6163,0.6149,0.6094,0.606,0.5989,0.5966,0.5975,0.5859,0.582,0.5736,0.5719,0.5694,0.5677,0.5694,0.5617,0.561,0.5603,0.5578,0.5568,0.5681,0.5681,0.5681,0.5681,0,0.626,0.6208,0.6171,0.6106,0.6069,0.6015,0.598,0.5945,0.5931,0.5903,0.5832,0.5785,0.5722,0.5701,0.5687,0.5615,0.5621,0.5624,0.564,0.5595,0.557,0.556,0.568,0.568,0.568,0.568,0,0,0.6201,0.6125,0.6112,0.6082,0.6021,0.5979,0.5924,0.5865,0.5834,0.5787,0.5738,0.5661,0.5664,0.5627,0.5608,0.5572,0.5518,0.5579,0.5577,0.5568,0.5434,0.5431,0.542,0.5513,0.5511,0.551,0.5438,0,0.6137,0.604,0.6017,0.5933,0.5883,0.587,0.5822,0.5778,0.5751,0.5704,0.5673,0.5618,0.5627,0.5604,0.5568,0.5532,0.549,0.5537,0.5465,0.5463,0.5478,0.5408,0.5404,0.5339,0.5429,0.5427,0.5426,0,0.6049,0.6002,0.5914,0.586,0.5838,0.5795,0.5739,0.5694,0.5644,0.5627,0.5587,0.5572,0.5512,0.5533,0.5449,0.5482,0.5451,0.5429,0.5426,0.5417,0.544,0.5394,0.5318,0.5307,0.5411,0.5412,0.5413,0,0.6013,0.5927,0.5863,0.5839,0.5774,0.5744,0.5716,0.5668,0.5634,0.5584,0.5561,0.5505,0.5473,0.5429,0.5398,0.5417,0.5316,0.5335,0.5298,0.5299,0.5276,0.5277,0.5191,0.526,0.526,0.526,0.526,0,0.5943,0.5889,0.5847,0.5807,0.5746,0.5719,0.5659,0.563,0.5587,0.5541,0.5526,0.5482,0.5445,0.5396,0.5372,0.5305,0.5291,0.5274,0.5268,0.5274,0.5276,0.5252,0.5255,0.5257,0.5258,0.5258,0.5259,0,0.5891,0.5861,0.579,0.5736,0.5722,0.5679,0.5631,0.5592,0.5565,0.5506,0.549,0.5447,0.5388,0.5355,0.528,0.5263,0.5189,0.5186,0.5206,0.5203,0.5168,0.5171,0.5062,0.5045,0.5126,0.5126,0.5125,0,0.5847,0.5806,0.5748,0.5717,0.5688,0.5638,0.5604,0.5576,0.554,0.5481,0.5448,0.5389,0.534,0.5246,0.5207,0.5149,0.5143,0.5109,0.5134,0.5142,0.5141,0.5143,0.5138,0.5104,0.5103,0.5103,0.5102,0,0.5772,0.576,0.5712,0.5659,0.5619,0.5575,0.5531,0.5506,0.547,0.5431,0.5372,0.5334,0.5259,0.52,0.5139,0.5108,0.5098,0.5095,0.5083,0.5088,0.5101,0.5092,0.5193,0.5097,0.5098,0.5098,0.5098,0.5098,0.5722,0.5684,0.5638,0.5585,0.555,0.551,0.547,0.5439,0.539,0.5328,0.5314,0.5251,0.5202,0.512,0.5088,0.5037,0.5043,0.5026,0.5021,0.5017,0.5015,0.5112,0.5026,0.5026,0.5026,0.5026,0.5026,0,0.5644,0.5614,0.5566,0.5507,0.5465,0.5463,0.5414,0.5379,0.5324,0.5281,0.5233,0.5165,0.5108,0.5065,0.5006,0.4974,0.4968,0.4959,0.496,0.4952,0.5014,0.503,0.4965,0.4965,0.4965,0.4965,0.4965,0.4965,0.5599,0.5535,0.5517,0.5435,0.5405,0.5346,0.5318,0.528,0.5245,0.517,0.5124,0.5097,0.5053,0.4991,0.4938,0.4926,0.4904,0.4896,0.4884,0.4942,0.4948,0.4954,0.4969,0.4892,0.4892,0.4826,0.4825,0.4825]}]]